Weather History for Klamath Falls, OR

Change the Weather History Date:

Sunday, April 22, 2012

  Actual Average Record
Temperature  
Mean Temperature 60 °F 45 °F  
Max Temperature 81 °F 58 °F 81 °F (2012)
Min Temperature 39 °F 31 °F 18 °F (1968)
Degree Days  
Heating Degree Days 5 20  
Month to date heating degree days 476 505  
Since 1 July heating degree days 6023 6167  
Cooling Degree Days 0 0  
Month to date cooling degree days 0 0  
Year to date cooling degree days 0 0  
Growing Degree Days 10 (Base 50)    
Moisture  
Dew Point 39 °F    
Average Humidity 53    
Maximum Humidity 92    
Minimum Humidity 20    
Precipitation  
Precipitation 0.00 in 0.05 in 0.47 in (1990)
Month to date precipitation 0.68 0.90  
Year to date precipitation 4.21 5.94  
Sea Level Pressure  
Sea Level Pressure 29.93 in    
Wind  
Wind Speed 7 mph (South)    
Max Wind Speed 25 mph    
Max Gust Speed 29 mph    
Visibility 10 miles    
Events      
T = Trace of Precipitation, MM = Missing Value Source: NWS Daily Summary

Daily Weather History Graph

Daily Weather History Graph

Search for Another Location

Airport:

Trip Planner

Search our weather history database for the weather conditions in past years. The results will help you decide how hot, cold, wet, or windy it might be!

Date:

Astronomy

Apr. 22, 2012 Rise Set
Actual Time 6:14 AM PDT 7:56 PM PDT
Civil Twilight 5:44 AM PDT 8:26 PM PDT
Nautical Twilight 5:08 AM PDT 9:02 PM PDT
Astronomical Twilight 4:30 AM PDT 9:41 PM PDT
Moon 6:47 AM PDT (4/22) 9:40 PM PDT (4/22)
Length of Visible Light 14h 41m
Length of Day
13h 42m
New Moon, 2% of the Moon is Illuminated
Apr 22
New Moon
Apr 29
First Quarter
May 5
Full
May 12
Last Quarter
May 20
New

Hourly Weather History & Observations

Time (PDT) Temp. Windchill Dew Point Humidity Pressure Visibility Wind Dir Wind Speed Gust Speed Precip Events Conditions
12:53 AM 46.0 °F - 42.1 °F 86% 29.98 in 10.0 mi Calm Calm - N/A   Clear
1:53 AM 45.0 °F - 39.0 °F 80% 29.96 in 9.0 mi Calm Calm - N/A   Clear
2:53 AM 43.0 °F - 39.9 °F 89% 29.95 in 10.0 mi Calm Calm - N/A   Clear
3:53 AM 42.1 °F - 37.9 °F 85% 29.95 in 10.0 mi Calm Calm - N/A   Clear
4:53 AM 41.0 °F 39.0 °F 37.9 °F 89% 29.96 in 10.0 mi East 3.5 mph - N/A   Clear
5:53 AM 39.0 °F - 37.0 °F 93% 29.97 in 10.0 mi Calm Calm - N/A   Clear
6:00 AM 41.0 °F - 37.4 °F 87% 30.04 in 10.0 mi Calm Calm - N/A   Clear
6:53 AM 43.0 °F - 39.0 °F 86% 29.96 in 10.0 mi Calm Calm - N/A   Clear
7:53 AM 52.0 °F - 46.0 °F 80% 29.97 in 10.0 mi North 3.5 mph - N/A   Clear
8:53 AM 57.0 °F - 45.0 °F 64% 29.97 in 10.0 mi Calm Calm - N/A   Clear
9:53 AM 63.0 °F - 43.0 °F 48% 29.97 in 10.0 mi Calm Calm - N/A   Clear
10:53 AM 66.9 °F - 44.1 °F 44% 29.96 in 10.0 mi Calm Calm - N/A   Clear
11:53 AM 72.0 °F - 43.0 °F 35% 29.95 in 10.0 mi South 5.8 mph - N/A   Partly Cloudy
12:53 PM 75.0 °F - 43.0 °F 32% 29.93 in 10.0 mi Calm Calm - N/A   Scattered Clouds
1:53 PM 78.1 °F - 37.9 °F 24% 29.90 in 10.0 mi SSW 12.7 mph 18.4 mph N/A   Scattered Clouds
2:53 PM 80.1 °F - 39.0 °F 23% 29.88 in 10.0 mi South 12.7 mph 24.2 mph N/A   Scattered Clouds
3:53 PM 80.1 °F - 36.0 °F 20% 29.87 in 10.0 mi South 24.2 mph 28.8 mph N/A   Scattered Clouds
4:53 PM 79.0 °F - 36.0 °F 21% 29.86 in 10.0 mi South 18.4 mph - N/A   Scattered Clouds
5:53 PM 77.0 °F - 33.1 °F 20% 29.88 in 10.0 mi South 17.3 mph - N/A   Scattered Clouds
6:53 PM 73.9 °F - 34.0 °F 23% 29.87 in 10.0 mi South 16.1 mph - N/A   Scattered Clouds
7:53 PM 68.0 °F - 33.1 °F 27% 29.86 in 10.0 mi South 15.0 mph - N/A   Scattered Clouds
8:53 PM 62.1 °F - 37.0 °F 39% 29.88 in 10.0 mi SSE 8.1 mph - N/A   Scattered Clouds
9:53 PM 57.0 °F - 37.9 °F 49% 29.90 in 7.0 mi SSE 6.9 mph - N/A   Partly Cloudy
10:53 PM 60.1 °F - 37.0 °F 42% 29.89 in 10.0 mi South 5.8 mph - N/A   Clear
11:53 PM 55.9 °F - 37.0 °F 49% 29.89 in 10.0 mi South 9.2 mph - N/A   Clear